TimeCDT,TemperatureF,Dew PointF,Humidity,Sea Level PressureIn,VisibilityMPH,Wind Direction,Wind SpeedMPH,Gust SpeedMPH,PrecipitationIn,Events,Conditions,WindDirDegrees,DateUTC
12:43 AM,71.6,66.2,83,29.89,10.0,South,13.8,-,N/A,,Overcast,170,2013-05-16 05:43:00
12:53 AM,72.0,66.0,81,29.88,10.0,South,16.1,-,N/A,,Overcast,170,2013-05-16 05:53:00
1:43 AM,71.6,66.2,83,29.88,10.0,South,15.0,-,N/A,,Overcast,170,2013-05-16 06:43:00
1:53 AM,72.0,66.9,84,29.88,10.0,South,9.2,20.7,N/A,,Overcast,180,2013-05-16 06:53:00
2:33 AM,66.2,62.6,88,29.97,1.8,North,15.0,-,0.03,Rain,Heavy Rain,360,2013-05-16 07:33:00
2:37 AM,64.4,62.6,94,29.96,2.0,NNE,11.5,-,0.04,Rain,Heavy Rain,20,2013-05-16 07:37:00
2:48 AM,64.4,62.6,94,29.95,4.0,NE,9.2,-,0.06,Rain,Light Rain,40,2013-05-16 07:48:00
2:53 AM,64.9,63.0,93,29.94,7.0,NE,6.9,-,0.07,Rain,Light Rain,50,2013-05-16 07:53:00
3:53 AM,64.9,63.0,93,29.90,9.0,ESE,12.7,-,0.04,Rain,Light Rain,110,2013-05-16 08:53:00
4:19 AM,64.4,62.6,94,29.95,10.0,Calm,Calm,-,0.00,,Overcast,0,2013-05-16 09:19:00
4:37 AM,64.4,62.6,94,29.97,2.5,North,5.8,-,0.01,Rain-Thunderstorm,Heavy Rain,350,2013-05-16 09:37:00
4:53 AM,64.9,63.0,93,29.92,2.5,SE,8.1,-,0.04,Rain-Thunderstorm,Heavy Thunderstorms and Rain,130,2013-05-16 09:53:00
5:04 AM,64.4,62.6,94,29.95,7.0,Calm,Calm,-,0.02,Rain-Thunderstorm,Light Thunderstorms and Rain,0,2013-05-16 10:04:00
5:14 AM,64.4,64.4,100,29.96,1.8,Variable,3.5,-,0.04,Rain-Thunderstorm,Heavy Thunderstorms and Rain,0,2013-05-16 10:14:00
5:26 AM,64.4,62.6,94,29.87,3.0,SE,17.3,-,0.07,Rain-Thunderstorm,Light Thunderstorms and Rain,130,2013-05-16 10:26:00
5:53 AM,64.9,62.1,90,29.84,10.0,SSE,18.4,-,0.13,,Partly Cloudy,150,2013-05-16 10:53:00
6:53 AM,66.0,63.0,90,29.87,10.0,SE,13.8,-,0.12,,Scattered Clouds,140,2013-05-16 11:53:00
7:13 AM,66.2,62.6,88,29.88,10.0,SE,11.5,-,0.04,,Mostly Cloudy,130,2013-05-16 12:13:00
7:23 AM,66.2,62.6,88,29.87,10.0,SE,13.8,-,0.06,,Mostly Cloudy,140,2013-05-16 12:23:00
7:53 AM,66.9,64.0,90,29.87,10.0,SE,12.7,-,0.10,,Clear,140,2013-05-16 12:53:00
8:53 AM,71.1,66.0,84,29.85,10.0,SE,13.8,-,0.09,,Clear,140,2013-05-16 13:53:00
9:32 AM,73.4,68.0,83,29.86,10.0,SSE,17.3,24.2,0.02,,Mostly Cloudy,160,2013-05-16 14:32:00
9:53 AM,73.9,69.1,85,29.84,10.0,SSE,17.3,-,0.02,,Overcast,160,2013-05-16 14:53:00
10:04 AM,75.2,68.0,78,29.85,10.0,South,21.9,28.8,N/A,,Mostly Cloudy,170,2013-05-16 15:04:00
10:53 AM,77.0,68.0,74,29.83,10.0,South,17.3,28.8,N/A,,Mostly Cloudy,170,2013-05-16 15:53:00
11:53 AM,78.1,68.0,71,29.83,10.0,South,19.6,26.5,N/A,,Overcast,180,2013-05-16 16:53:00
12:53 PM,80.1,69.1,69,29.82,10.0,South,17.3,23.0,N/A,,Overcast,190,2013-05-16 17:53:00
1:03 PM,80.6,69.8,70,29.83,10.0,South,11.5,-,N/A,,Overcast,180,2013-05-16 18:03:00
1:21 PM,80.6,69.8,70,29.83,10.0,South,12.7,-,N/A,,Overcast,190,2013-05-16 18:21:00
1:50 PM,80.6,69.8,70,29.82,10.0,South,16.1,-,N/A,,Overcast,170,2013-05-16 18:50:00
1:53 PM,81.0,69.1,67,29.81,10.0,South,16.1,-,N/A,,Overcast,180,2013-05-16 18:53:00
2:02 PM,80.6,69.8,70,29.82,10.0,South,15.0,-,N/A,,Overcast,180,2013-05-16 19:02:00
2:53 PM,82.9,70.0,65,29.79,10.0,SSE,17.3,21.9,N/A,,Overcast,160,2013-05-16 19:53:00
3:53 PM,84.0,71.1,65,29.78,10.0,South,16.1,20.7,N/A,,Overcast,170,2013-05-16 20:53:00
4:53 PM,82.9,70.0,65,29.77,10.0,SSE,18.4,-,N/A,,Overcast,160,2013-05-16 21:53:00
5:53 PM,82.9,70.0,65,29.76,10.0,South,13.8,-,N/A,,Mostly Cloudy,170,2013-05-16 22:53:00
6:46 PM,82.4,71.6,70,29.77,9.0,South,18.4,26.5,N/A,,Overcast,170,2013-05-16 23:46:00
6:53 PM,82.0,71.1,69,29.76,9.0,South,18.4,27.6,N/A,,Overcast,170,2013-05-16 23:53:00
7:53 PM,79.0,70.0,74,29.77,9.0,SSE,11.5,-,N/A,,Scattered Clouds,160,2013-05-17 00:53:00
8:53 PM,77.0,70.0,79,29.78,9.0,SSE,12.7,-,N/A,,Scattered Clouds,150,2013-05-17 01:53:00
9:53 PM,75.9,70.0,82,29.81,8.0,SSE,10.4,-,N/A,,Overcast,160,2013-05-17 02:53:00
10:53 PM,75.9,71.1,85,29.82,8.0,South,13.8,-,N/A,,Overcast,180,2013-05-17 03:53:00
11:53 PM,75.0,71.1,87,29.82,7.0,South,11.5,-,N/A,,Overcast,170,2013-05-17 04:53:00